Overview Statistics Trail Chart Weather Telemetry Raw packets
 

This is the latest recevied weather packets stored in our database for station/object SA7AHC. If no packets are shown the sender has not sent any weather packets the latest 10 day(s).

<< 9 10 11 12 13 14 15 >>
Time Temp. Humidity Pressure Rain* Wind** Luminosity Snow
1788477930 13.33° C 99% 1004.9 hPa 0 mm - 0 W/m² -
1788477331 13.33° C 99% 1004.8 hPa 0 mm - 0 W/m² -
1788476729 13.33° C 99% 1004.6 hPa 0 mm - 0 W/m² -
1788476129 13.89° C 99% 1004.6 hPa 0 mm - 0 W/m² -
1788475530 13.89° C 99% 1005 hPa 0 mm - 0 W/m² -
1788474931 13.89° C 99% 1005.1 hPa 0 mm - 0 W/m² -
1788474331 14.44° C 99% 1005.1 hPa 0 mm - 0 W/m² -
1788473729 14.44° C 99% 1004.8 hPa 0 mm - 0 W/m² -
1788473128 14.44° C 99% 1004.8 hPa 0 mm - 0 W/m² -
1788472528 14.44° C 99% 1004.8 hPa 0 mm - 0 W/m² -
1788471929 14.44° C 99% 1004.6 hPa 0 mm - 0 W/m² -
1788471334 14.44° C 99% 1004.9 hPa 0 mm - 0 W/m² -
1788470734 14.44° C 99% 1004.9 hPa 0.25 mm - 0 W/m² -
1788470130 14.44° C 99% 1004.8 hPa 1.02 mm - 0 W/m² -
1788469530 14.44° C 99% 1004.8 hPa 2.29 mm - 0 W/m² -
1788468929 14.44° C 99% 1004.8 hPa 2.54 mm - 0 W/m² -
1788468330 14.44° C 99% 1004.8 hPa 2.54 mm - 0 W/m² -
1788467728 14.44° C 99% 1004.9 hPa 2.54 mm - 0 W/m² -
1788467129 14.44° C 99% 1004.9 hPa 2.79 mm - 0 W/m² -
1788466529 14.44° C 99% 1005.1 hPa 2.03 mm - 0 W/m² -
1788465930 14.44° C 99% 1005.2 hPa 2.54 mm - 0 W/m² -
1788465330 14.44° C 99% 1005.2 hPa 4.32 mm - 0 W/m² -
1788464729 14.44° C 99% 1005.2 hPa 4.32 mm - 0 W/m² -
1788464129 14.44° C 99% 1005.4 hPa 4.32 mm - 0 W/m² -
1788463529 14.44° C 99% 1005.4 hPa 4.06 mm - 0 W/m² -

* Rain latest hour (hover to see other rain measurements)
** Current wind speed in m/s (hover to see current wind gust speed)